Location: ??????
(56.0120°N, 39.1740°E)
Time: 21:37:38
(UTC+00:00)

Cosmos 304 Rocket - Pass Details

Date: 14 April 2026
Orbit: 668 x 676 km, 74.0° (Epoch: 16 May)

Event Time Altitude Azimuth Distance (km) Brightness Sun altitude
Rises 21:05:19 0° 329° (NNW) 3,034 8.1 -24.2°
Reaches altitude 10° 21:07:41 10° 323° (NW) 2,116 7.0 -24.2°
Enters shadow 21:12:03 46° 258° (WSW) 908 4.2 -24.3°
